Total_Precipitation_Accumulation
0.09 0.05 0.02 0.03 0.05 0.10 0.29 0.19 0.10 0.09 0.07 0.02 0.10 0.06 0.04 0.02 0.01 0.02 0.00 0.02 0.14 0.31 0.79 0.89 0.40 0.11 0.07 0.06 0.03 0.04 0.04 0.05 0.05 0.07 0.14 0.18 0.17 0.19 0.13 0.06 0.05 0.04 0.09 0.11
0.04 0.02 0.00 0.02 0.03 0.11 0.15 0.10 0.17 0.20 0.14 0.06 0.05 0.13 0.08 0.01 0.03 0.03 0.03 0.03 0.13 0.21 0.66 1.00 1.18 0.40 0.30 0.66 0.47 0.25 0.20 0.21 0.16 0.13 0.15 0.09 0.14 0.12 0.06 0.02 0.01 0.01 0.02 0.09
0.02 0.01 0.02 0.10 0.27 0.11 0.08 0.04 0.18 0.33 0.19 0.09 0.07 0.12 0.21 0.04 0.04 0.04 0.04 0.02 0.08 0.13 0.22 0.52 1.10 0.70 0.49 0.98 0.97 0.59 0.56 0.37 0.17 0.06 0.18 0.17 0.20 0.17 0.16 0.08 0.02 0.03 0.02 0.05
0.01 0.01 0.04 0.13 0.45 0.11 0.11 0.08 0.13 0.31 0.18 0.08 0.08 0.19 0.27 0.14 0.07 0.09 0.11 0.04 0.05 0.09 0.11 0.20 0.37 0.47 0.38 0.31 0.30 0.43 0.62 0.43 0.28 0.18 0.32 0.33 0.41 0.47 0.47 0.36 0.26 0.17 0.18 0.22
0.06 0.03 0.04 0.14 0.22 0.10 0.16 0.07 0.10 0.12 0.07 0.03 0.09 0.16 0.18 0.18 0.13 0.18 0.20 0.11 0.07 0.05 0.15 0.16 0.19 0.14 0.10 0.07 0.09 0.14 0.19 0.21 0.29 0.34 0.40 0.51 0.53 0.54 0.47 0.40 0.37 0.37 0.42 0.33
0.03 0.01 0.02 0.03 0.01 0.04 0.08 0.04 0.04 0.04 0.05 0.13 0.14 0.07 0.12 0.18 0.14 0.23 0.17 0.11 0.07 0.02 0.05 0.17 0.05 0.01 0.00 0.00 0.00 0.00 0.03 0.07 0.17 0.17 0.16 0.39 0.58 0.61 0.56 0.40 0.37 0.31 0.27 0.31
0.01 0.04 0.17 0.09 0.13 0.11 0.03 0.05 0.06 0.08 0.11 0.23 0.15 0.04 0.07 0.09 0.03 0.16 0.21 0.09 0.05 0.06 0.02 0.07 0.05 0.01 0.00 0.00 0.00 0.00 0.00 0.01 0.02 0.05 0.11 0.16 0.18 0.24 0.12 0.07 0.06 0.03 0.05 0.08
0.07 0.20 0.24 0.10 0.10 0.03 0.03 0.03 0.04 0.06 0.08 0.16 0.04 0.07 0.07 0.06 0.04 0.10 0.11 0.08 0.05 0.12 0.05 0.04 0.01 0.01 0.00 0.00 0.00 0.00 0.00 0.00 0.00 0.00 0.01 0.02 0.07 0.10 0.09 0.07 0.04 0.03 0.03 0.04
0.13 0.26 0.17 0.06 0.01 0.00 0.00 0.00 0.00 0.01 0.02 0.02 0.03 0.02 0.01 0.01 0.02 0.02 0.02 0.08 0.08 0.07 0.10 0.02 0.02 0.00 0.00 0.00 0.00 0.00 0.00 0.00 0.00 0.00 0.00 0.00 0.00 0.00 0.02 0.03 0.01 0.00 0.01 0.04
0.10 0.15 0.04 0.00 0.00 0.00 0.00 0.00 0.00 0.00 0.01 0.02 0.02 0.00 0.00 0.00 0.01 0.03 0.03 0.07 0.07 0.06 0.03 0.01 0.00 0.00 0.00 0.00 0.00 0.00 0.00 0.00 0.00 0.00 0.00 0.00 0.00 0.00 0.00 0.00 0.00 0.00 0.00 0.00
0.00 0.02 0.01 0.00 0.00 0.00 0.00 0.00 0.00 0.00 0.00 0.00 0.00 0.00 0.00 0.00 0.00 0.00 0.01 0.03 0.02 0.02 0.01 0.00 0.00 0.00 0.00 0.00 0.00 0.00 0.00 0.00 0.00 0.00 0.00 0.00 0.00 0.00 0.00 0.00 0.00 0.00 0.00 0.00
0.00 0.00 0.00 0.00 0.00 0.00 0.00 0.00 0.00 0.00 0.00 0.00 0.00 0.00 0.00 0.00 0.00 0.00 0.00 0.00 0.00 0.00 0.00 0.00 0.00 0.00 0.00 0.00 0.00 0.00 0.00 0.00 0.00 0.00 0.00 0.00 0.00 0.00 0.00 0.00 0.00 0.00 0.00 0.00
0.00 0.00 0.00 0.00 0.00 0.00 0.00 0.00 0.00 0.00 0.00 0.00 0.00 0.00 0.00 0.00 0.00 0.00 0.00 0.00 0.00 0.00 0.00 0.00 0.00 0.00 0.00 0.00 0.00 0.00 0.00 0.00 0.00 0.00 0.00 0.00 0.00 0.00 0.00 0.00 0.00 0.00 0.00 0.00
0.00 0.00 0.00 0.00 0.00 0.00 0.00 0.00 0.00 0.00 0.00 0.00 0.00 0.00 0.00 0.00 0.00 0.00 0.00 0.00 0.00 0.00 0.00 0.00 0.00 0.00 0.00 0.00 0.00 0.00 0.00 0.00 0.00 0.00 0.00 0.00 0.00 0.00 0.00 0.00 0.00 0.00 0.00 0.00
0.00 0.00 0.00 0.00 0.00 0.00 0.00 0.00 0.00 0.00 0.00 0.00 0.00 0.00 0.00 0.00 0.00 0.00 0.00 0.00 0.00 0.00 0.00 0.00 0.00 0.00 0.00 0.00 0.00 0.00 0.00 0.00 0.00 0.00 0.00 0.00 0.00 0.00 0.00 0.00 0.00 0.00 0.00 0.00
0.00 0.00 0.00 0.00 0.00 0.00 0.00 0.00 0.00 0.00 0.00 0.00 0.00 0.00 0.00 0.00 0.00 0.00 0.00 0.00 0.00 0.00 0.00 0.00 0.00 0.00 0.00 0.00 0.00 0.00 0.00 0.00 0.00 0.00 0.00 0.00 0.00 0.00 0.00 0.00 0.00 0.00 0.00 0.00
0.00 0.00 0.00 0.00 0.00 0.00 0.00 0.00 0.00 0.00 0.00 0.00 0.00 0.00 0.00 0.00 0.00 0.00 0.00 0.00 0.00 0.00 0.00 0.00 0.00 0.00 0.00 0.00 0.00 0.00 0.00 0.00 0.00 0.00 0.00 0.00 0.00 0.00 0.00 0.00 0.00 0.00 0.00 0.00
0.00 0.00 0.00 0.00 0.00 0.00 0.00 0.00 0.00 0.00 0.00 0.00 0.00 0.00 0.00 0.00 0.00 0.00 0.00 0.00 0.00 0.00 0.00 0.00 0.00 0.00 0.00 0.00 0.00 0.00 0.00 0.00 0.00 0.00 0.00 0.00 0.00 0.00 0.00 0.00 0.00 0.00 0.00 0.00
0.00 0.00 0.00 0.00 0.00 0.00 0.00 0.00 0.00 0.00 0.00 0.00 0.00 0.00 0.00 0.00 0.00 0.00 0.00 0.00 0.00 0.00 0.00 0.00 0.00 0.00 0.00 0.00 0.00 0.00 0.00 0.00 0.00 0.00 0.00 0.00 0.00 0.00 0.00 0.00 0.00 0.00 0.00 0.00
0.00 0.00 0.00 0.00 0.00 0.00 0.00 0.00 0.00 0.00 0.00 0.00 0.00 0.00 0.00 0.00 0.00 0.00 0.00 0.00 0.00 0.00 0.00 0.00 0.00 0.00 0.00 0.00 0.00 0.00 0.00 0.00 0.00 0.00 0.00 0.00 0.00 0.00 0.00 0.00 0.00 0.00 0.00 0.00
0.00 0.00 0.00 0.00 0.00 0.00 0.00 0.00 0.00 0.00 0.00 0.00 0.00 0.00 0.00 0.00 0.00 0.00 0.00 0.00 0.00 0.00 0.00 0.00 0.00 0.00 0.00 0.00 0.00 0.00 0.00 0.00 0.00 0.00 0.00 0.00 0.00 0.00 0.00 0.00 0.00 0.00 0.00 0.00
0.00 0.00 0.00 0.00 0.00 0.00 0.00 0.00 0.00 0.00 0.00 0.00 0.00 0.00 0.00 0.00 0.00 0.00 0.00 0.00 0.00 0.00 0.00 0.00 0.00 0.00 0.00 0.00 0.00 0.00 0.00 0.00 0.00 0.00 0.00 0.00 0.00 0.00 0.00 0.00 0.00 0.00 0.00 0.00
0.00 0.00 0.00 0.00 0.00 0.00 0.00 0.00 0.00 0.00 0.00 0.00 0.00 0.00 0.00 0.00 0.00 0.00 0.00 0.00 0.00 0.00 0.00 0.00 0.00 0.00 0.00 0.00 0.00 0.00 0.00 0.00 0.00 0.00 0.00 0.00 0.00 0.00 0.00 0.00 0.00 0.00 0.00 0.00
0.00 0.00 0.00 0.00 0.00 0.00 0.00 0.00 0.00 0.00 0.00 0.00 0.00 0.00 0.00 0.00 0.00 0.00 0.00 0.00 0.00 0.00 0.00 0.00 0.00 0.00 0.00 0.00 0.00 0.00 0.00 0.00 0.00 0.00 0.00 0.00 0.00 0.00 0.00 0.00 0.00 0.00 0.00 0.01
0.00 0.00 0.00 0.00 0.00 0.00 0.00 0.00 0.00 0.00 0.00 0.00 0.00 0.00 0.00 0.00 0.00 0.00 0.00 0.00 0.00 0.00 0.00 0.00 0.00 0.00 0.00 0.00 0.00 0.00 0.00 0.00 0.00 0.00 0.00 0.00 0.00 0.00 0.00 0.00 0.00 0.00 0.01 0.02
0.00 0.00 0.00 0.00 0.00 0.00 0.00 0.00 0.00 0.00 0.00 0.00 0.00 0.00 0.00 0.00 0.00 0.00 0.00 0.00 0.00 0.00 0.00 0.00 0.00 0.00 0.00 0.00 0.00 0.00 0.00 0.00 0.00 0.00 0.00 0.00 0.00 0.00 0.00 0.00 0.00 0.00 0.01 0.02